sat.trackr.live / text

‹ back to catalog

STARLINK-35825

NORAD 66567 · 2025-268L

PAYLOAD ACTIVE UNKNOWN

§ Identity

Operator
Country
US
Launch date
2025-11-21
Launch site
AFETR
Launch vehicle
Mass (kg)
RCS (m²)

Purposes: comms

External: N2YO · Heavens-Above · Gunter

§ Orbital elements

Epoch: 2026-05-25T01:32:57.660000Z

Period
94.27 min
Inclination
43.0012°
Eccentricity
0.0002862
Mean motion
15.27593449 rev/d
Perigee alt
481.0 km
Apogee alt
485.0 km
Semi-major
6,861.1 km
B*
5.2113e-4
RAAN
275.4471°
Arg perigee
266.2161°
Mean anomaly
93.8364°
Rev number
2,964

§ Raw data

STARLINK-358251 66567U 25268L   26145.06455625  .00014112  00000+0  52113-3 0  99972 66567  43.0012 275.4471 0002862 266.2161  93.8364 15.27593449 29647

JSON: /api/v1/satellites/66567 · /tle

For live sub-satellite position, see the globe view (requires WebGL).

§ Visibility from observer

Set your observer location to see the next 7 days of passes ≥ 10°. The values pass through the URL so the page stays shareable.

No JS? Fill the form by hand. The geolocation button needs JavaScript.